| time (UTC) | temp F | wind direction | speed knots | gust knots | rain 1hr in | rain 24hr in | rain mn in | humidity % | barometer mb |
| 20260506143044 | 60 | 0 | 1.7 | 7.0 | 0.01 | 0.01 | 0.01 | 85 | 1008.7 |
| 20260506141541 | 61 | 17 | 1.7 | 7.8 | 0.00 | 0.00 | 0.00 | 83 | 1008.6 |
| 20260506140042 | 61 | 0 | 1.7 | 6.1 | 0.00 | 0.00 | 0.00 | 81 | 1008.8 |
| 20260506134536 | 62 | 283 | 2.6 | 9.6 | 0.00 | 0.00 | 0.00 | 79 | 1008.9 |
| 20260506133035 | 62 | 304 | 0.9 | 7.0 | 0.00 | 0.00 | 0.00 | 79 | 1008.8 |
| 20260506131549 | 62 | 316 | 3.5 | 12.2 | 0.00 | 0.00 | 0.00 | 78 | 1008.6 |
| 20260506130057 | 62 | 245 | 2.6 | 8.7 | 0.00 | 0.00 | 0.00 | 79 | 1008.2 |
| 20260506124547 | 62 | 294 | 1.7 | 12.2 | 0.00 | 0.00 | 0.00 | 79 | 1008.3 |
| 20260506123040 | 61 | 5 | 2.6 | 13.0 | 0.00 | 0.00 | 0.00 | 79 | 1008.5 |
| 20260506121535 | 61 | 303 | 4.3 | 13.9 | 0.00 | 0.00 | 0.00 | 79 | 1008.8 |
| 20260506120043 | 61 | 258 | 2.6 | 9.6 | 0.00 | 0.00 | 0.00 | 79 | 1008.5 |
| 20260506114541 | 62 | 284 | 3.5 | 12.2 | 0.00 | 0.00 | 0.00 | 79 | 1008.6 |
| 20260506113050 | 62 | 261 | 4.3 | 13.9 | 0.00 | 0.00 | 0.00 | 79 | 1008.6 |
| 20260506111537 | 61 | 294 | 4.3 | 13.9 | 0.00 | 0.00 | 0.00 | 79 | 1008.3 |
| 20260506110040 | 61 | 286 | 2.6 | 13.0 | 0.00 | 0.00 | 0.00 | 79 | 1008.4 |
| 20260506104541 | 61 | 287 | 1.7 | 11.3 | 0.00 | 0.00 | 0.00 | 78 | 1008.3 |
| 20260506103048 | 61 | 248 | 3.5 | 13.0 | 0.00 | 0.00 | 0.00 | 78 | 1008.3 |
| 20260506101551 | 61 | 298 | 3.5 | 13.0 | 0.00 | 0.00 | 0.00 | 77 | 1008.2 |
| 20260506100100 | 61 | 17 | 1.7 | 10.4 | 0.00 | 0.00 | 0.00 | 75 | 1008.2 |
| 20260506094539 | 62 | 246 | 5.2 | 10.4 | 0.00 | 0.00 | 0.00 | 74 | 1008.1 |
| 20260506093042 | 62 | 0 | 1.7 | 10.4 | 0.00 | 0.00 | 0.00 | 73 | 1007.9 |
| 20260506091541 | 62 | 69 | 1.7 | 10.4 | 0.00 | 0.00 | 0.00 | 72 | 1008.3 |
| 20260506090042 | 62 | 322 | 3.5 | 13.0 | 0.00 | 0.00 | 0.00 | 71 | 1008.2 |
| 20260506084600 | 62 | 257 | 1.7 | 6.1 | 0.00 | 0.00 | 0.00 | 69 | 1008.2 |
| 20260506083041 | 62 | 281 | 1.7 | 7.0 | 0.00 | 0.00 | 0.00 | 67 | 1008.4 |
| 20260506081544 | 63 | 0 | 0.0 | 4.3 | 0.00 | 0.00 | 0.00 | 65 | 1008.5 |
| 20260506073047 | 64 | 15 | 1.7 | 10.4 | 0.00 | 0.00 | 0.00 | 62 | 1008.6 |
| 20260506071541 | 64 | 51 | 2.6 | 8.7 | 0.00 | 0.00 | 0.00 | 62 | 1008.7 |
| 20260506061541 | 65 | 19 | 0.9 | 8.7 | 0.00 | 0.00 | 0.00 | 60 | 1009.2 |
| 20260506044631 | 67 | 269 | 1.7 | 9.6 | 0.00 | 0.00 | 0.00 | 55 | 1009.7 |
| 20260506043036 | 67 | 311 | 2.6 | 7.0 | 0.00 | 0.00 | 0.00 | 53 | 1009.6 |
| 20260506041556 | 68 | 292 | 1.7 | 10.4 | 0.00 | 0.00 | 0.00 | 52 | 1009.5 |
| 20260506040043 | 68 | 300 | 2.6 | 7.8 | 0.00 | 0.00 | 0.00 | 51 | 1009.6 |
| 20260506034610 | 68 | 296 | 2.6 | 8.7 | 0.00 | 0.00 | 0.00 | 50 | 1009.5 |
| 20260506033038 | 69 | 325 | 3.5 | 11.3 | 0.00 | 0.00 | 0.00 | 49 | 1009.3 |
| 20260506031535 | 69 | 319 | 2.6 | 12.2 | 0.00 | 0.00 | 0.00 | 50 | 1009.2 |
| 20260506030042 | 69 | 102 | 2.6 | 10.4 | 0.00 | 0.00 | 0.00 | 50 | 1009.4 |
| 20260506024541 | 69 | 0 | 2.6 | 9.6 | 0.00 | 0.00 | 0.00 | 49 | 1009.4 |
| 20260506023101 | 69 | 308 | 0.9 | 13.0 | 0.00 | 0.00 | 0.00 | 48 | 1009.6 |
| 20260506021536 | 70 | 29 | 4.3 | 11.3 | 0.00 | 0.00 | 0.00 | 47 | 1009.5 |
| 20260506020045 | 70 | 292 | 2.6 | 9.6 | 0.00 | 0.00 | 0.00 | 45 | 1009.3 |
| 20260506014542 | 71 | 309 | 1.7 | 7.8 | 0.00 | 0.00 | 0.00 | 43 | 1009.2 |
| 20260506013042 | 72 | 302 | 2.6 | 11.3 | 0.00 | 0.00 | 0.00 | 42 | 1009.0 |
| 20260506011549 | 72 | 332 | 4.3 | 10.4 | 0.00 | 0.00 | 0.00 | 41 | 1009.0 |
| 20260506010042 | 72 | 360 | 3.5 | 14.8 | 0.00 | 0.00 | 0.00 | 42 | 1008.7 |
| 20260506004600 | 72 | 329 | 5.2 | 12.2 | 0.00 | 0.00 | 0.00 | 42 | 1008.5 |
| 20260506003047 | 72 | 285 | 2.6 | 11.3 | 0.00 | 0.00 | 0.00 | 42 | 1008.5 |
| 20260506001540 | 72 | 297 | 3.5 | 12.2 | 0.00 | 0.00 | 0.00 | 43 | 1008.3 |
| 20260506000047 | 72 | 0 | 1.7 | 12.2 | 0.00 | 0.00 | 0.00 | 42 | 1008.2 |
| 20260505234601 | 73 | 5 | 2.6 | 11.3 | 0.00 | 0.00 | 0.00 | 42 | 1008.2 |
| 20260505233042 | 73 | 292 | 3.5 | 10.4 | 0.00 | 0.00 | 0.00 | 41 | 1008.1 |
| 20260505231541 | 74 | 332 | 4.3 | 10.4 | 0.00 | 0.00 | 0.00 | 40 | 1007.9 |
| 20260505230043 | 74 | 279 | 3.5 | 14.8 | 0.00 | 0.00 | 0.00 | 39 | 1007.8 |
| 20260505224543 | 74 | 338 | 3.5 | 11.3 | 0.00 | 0.00 | 0.00 | 39 | 1007.7 |
| 20260505223042 | 75 | 196 | 2.6 | 12.2 | 0.00 | 0.00 | 0.00 | 39 | 1007.6 |
| 20260505221541 | 75 | 47 | 2.6 | 13.0 | 0.00 | 0.00 | 0.00 | 40 | 1007.4 |
| 20260505220055 | 75 | 27 | 4.3 | 12.2 | 0.00 | 0.00 | 0.00 | 38 | 1007.3 |
| 20260505214543 | 76 | 26 | 3.5 | 13.0 | 0.00 | 0.00 | 0.00 | 37 | 1007.1 |
| 20260505213043 | 77 | 268 | 3.5 | 15.6 | 0.00 | 0.00 | 0.00 | 36 | 1007.0 |
| 20260505211545 | 77 | 331 | 0.9 | 8.7 | 0.00 | 0.00 | 0.00 | 32 | 1007.0 |
| 20260505210040 | 78 | 296 | 5.2 | 11.3 | 0.00 | 0.00 | 0.00 | 30 | 1006.8 |
| 20260505204537 | 78 | 342 | 2.6 | 13.0 | 0.00 | 0.00 | 0.00 | 30 | 1006.8 |
| 20260505203044 | 80 | 304 | 3.5 | 16.5 | 0.00 | 0.00 | 0.00 | 29 | 1006.6 |
| 20260505201538 | 80 | 299 | 6.1 | 16.5 | 0.00 | 0.00 | 0.00 | 29 | 1006.7 |
| 20260505200041 | 79 | 265 | 5.2 | 13.0 | 0.00 | 0.00 | 0.00 | 32 | 1006.9 |
| 20260505194545 | 80 | 273 | 2.6 | 12.2 | 0.00 | 0.00 | 0.00 | 31 | 1007.2 |
| 20260505193046 | 80 | 50 | 7.0 | 19.1 | 0.00 | 0.00 | 0.00 | 32 | 1007.3 |
| 20260505191552 | 80 | 348 | 6.1 | 22.6 | 0.00 | 0.00 | 0.00 | 31 | 1007.4 |
| 20260505190038 | 80 | 300 | 3.5 | 13.9 | 0.00 | 0.00 | 0.00 | 34 | 1007.6 |
| 20260505184544 | 80 | 26 | 4.3 | 21.7 | 0.00 | 0.00 | 0.00 | 36 | 1007.8 |
| 20260505183041 | 78 | 32 | 5.2 | 13.0 | 0.00 | 0.00 | 0.00 | 38 | 1008.0 |
| 20260505181540 | 79 | 340 | 5.2 | 13.9 | 0.00 | 0.00 | 0.00 | 35 | 1008.3 |
| 20260505180050 | 79 | 265 | 4.3 | 16.5 | 0.00 | 0.00 | 0.00 | 39 | 1008.3 |
| 20260505174542 | 78 | 299 | 7.0 | 18.2 | 0.00 | 0.00 | 0.00 | 36 | 1008.6 |
| 20260505173045 | 78 | 294 | 7.0 | 18.2 | 0.00 | 0.00 | 0.00 | 39 | 1008.7 |
| 20260505171541 | 78 | 336 | 5.2 | 26.9 | 0.00 | 0.00 | 0.00 | 41 | 1008.4 |
| 20260505170055 | 78 | 248 | 6.1 | 17.4 | 0.00 | 0.00 | 0.00 | 42 | 1008.5 |
| 20260505164539 | 77 | 332 | 3.5 | 13.9 | 0.00 | 0.00 | 0.00 | 42 | 1008.5 |
| 20260505163040 | 77 | 279 | 5.2 | 14.8 | 0.00 | 0.00 | 0.00 | 43 | 1008.7 |
| 20260505161548 | 75 | 299 | 5.2 | 16.5 | 0.00 | 0.00 | 0.00 | 45 | 1009.0 |
| 20260505153052 | 73 | 312 | 4.3 | 13.0 | 0.00 | 0.00 | 0.00 | 46 | 1009.6 |
| 20260505151542 | 74 | 284 | 4.3 | 17.4 | 0.00 | 0.00 | 0.00 | 48 | 1009.6 |